Retour au catalogue

STARLINK-35922

ActifCommunicationsVLEO
NORAD 66502·PAYLOAD·🇺🇸 United States

Lancé Nov 15, 2025 depuis Cape Canaveral Space Force Station

Loading…

Prochains Passages (prochaines 24 heures)

TLE

FraisSource: CelesTrak SupGP

Époque: Sep 14, 2026, 23:12 UTC

1 66502C 25263T   26257.96715278 -.00016860  00000+0 -61077-3 0  2577
2 66502  43.0016   2.0475 0001517 278.5495  59.1735 15.27581455    11

Suivez STARLINK-35922 en temps réel avec AllMySat

Download on the App Store